Content
SEND FEEDBACK

Daily
Averages
Monthly
Summary
Mexico

CACAO, QUINTANA ROO


Home > North America > Mexico > Quintana Roo
Elevation: 115 feet     Latitude: 18 13N     Longitude: 088 39W

WEATHER
 
SELECT A DAY
Number of Records: 122,408;   Date Range: 1/1/95 - 8/10/14
 
SHARE

PRINT THIS DATA

[ ← Previous Day ]
WEATHER ALMANAC - OCTOBER 8, 2013
[ Next Day → ]
[ °C ]   °F
We're sorry. There is no daily almanac available for Cacao, Quintana Roo on October 8, 2013.
WEATHER BY HOUR - OCTOBER 8, 2013
[ °C ]   °F
Local TimeTemperatureDewpointHumidityBarometerVisibilityWind DirectionWind SpeedGust SpeedPrecipitationEventsConditions
3:45 AM77.0 °F75.0 °F90 %29.91 in5.0 miNW (310°)4.5 mphRainLight Drizzle
6:45 AM76.0 °F74.0 °F93 %29.95 in6.0 miNNW (330°)2.2 mphRainLight Rain
6:45 AM75.2 °F71.6 °F89 %29.94 in7.0 miCalmMostly Cloudy
7:40 AM75.2 °F71.6 °F89 %29.95 in7.0 miCalmMostly Cloudy
8:30 AM75.2 °F71.6 °F89 %29.98 in5.0 miCalmRainRain
8:45 AM75.2 °F71.6 °F89 %29.98 in3.0 miCalmRainRain
9:40 AM75.2 °F71.6 °F89 %29.99 in5.0 miCalmOvercast
10:00 AM76.0 °F74.0 °F92 %29.98 in6.0 miNorth4.5 mph
10:40 AM77.0 °F71.6 °F83 %29.96 in7.0 miCalmOvercast
11:00 AM77.0 °F71.6 °F83 %29.96 in7.0 miCalmOvercast
11:40 AM78.8 °F71.6 °F78 %29.96 in7.0 miCalmMostly Cloudy
12:40 PM82.4 °F75.2 °F79 %29.94 in7.0 miCalmMostly Cloudy
12:50 PM85.0 °F74.0 °F61 %29.94 in6.0 miEast (90°)2.2 mphRainLight Drizzle
1:42 PM84.2 °F77.0 °F79 %29.90 in7.0 miCalmMostly Cloudy
2:40 PM86.0 °F78.8 °F79 %29.87 in7.0 miEast (100°)5.8 mphMostly Cloudy
3:40 PM87.8 °F78.8 °F75 %29.87 in7.0 miEast (100°)6.9 mphMostly Cloudy
3:50 PM91.0 °F75.0 °F51 %29.88 in6.0 miEast (90°)4.5 mphScattered Clouds
4:54 PM86.0 °F77.0 °F74 %29.86 in7.0 miEast (100°)5.8 mphMostly Cloudy
5:40 PM80.6 °F71.6 °F74 %29.87 in7.0 miEast (90°)6.9 mphMostly Cloudy
6:40 PM80.6 °F71.6 °F74 %29.88 in7.0 miCalmMostly Cloudy
6:50 PM80.0 °F75.0 °F79 %29.89 in6.0 miEast (80°)2.2 mphOvercast
7:40 PM80.6 °F71.6 °F74 %29.88 in7.0 miCalmMostly Cloudy
8:40 PM80.6 °F71.6 °F74 %29.92 in7.0 miCalmMostly Cloudy
9:40 PM80.6 °F71.6 °F74 %29.93 in7.0 miCalmOvercast
9:50 PM81.0 °F76.0 °F80 %29.95 in5.0 miEast (90°)4.5 mphPartly Cloudy
Hourly data recorded from MMCM, located miles away from Cacao, Quintana Roo







STORIES FROM OUR PARTNERS